This demonstration page uses our WeatherBlox Daily Observations layout. Learn more.

Left ArrowRight Arrow

Hourly Observations for June 10, 2021

Temp ( °F °C ) Dew Point ( °F °C ) Humidity (%) Winds ( mph kmh ) Pressure ( in mb ) Visibility ( mi km ) Precip ( " mm )
12:51 am 00:51 Clear 75 23.9 22 -5.6 14 14 NW 7 11 29.83 1010 10 16 N/A
1:51 am 01:51 Clear 72 22.2 19 -7.2 13 13 WNW 8 13 29.83 1010 10 16 N/A
2:51 am 02:51 Clear 70 21.1 21 -6.1 16 16 N N/A 29.84 1010 10 16 N/A
3:51 am 03:51 Clear 66 18.9 19 -7.2 16 16 E 6 9 29.85 1011 10 16 N/A
4:51 am 04:51 Clear 63 17.2 19 -7.2 18 18 SSE 5 7 29.85 1011 10 16 N/A
5:51 am 05:51 Sunny 63 17.2 17 -8.3 17 17 E 3 6 29.86 1011 10 16 N/A
6:51 am 06:51 Sunny 72 22.2 20 -6.7 14 14 ESE 5 7 29.87 1012 10 16 N/A
7:51 am 07:51 Sunny 79 26.1 21 -6.1 11 11 W 3 6 29.88 1012 10 16 N/A
8:51 am 08:51 Sunny 86 30 24 -4.4 10 10 WNW 8 13 29.86 1011 10 16 N/A
9:51 am 09:51 Sunny 90 32.2 24 -4.4 9 9 WNW 8 13 29.85 1011 10 16 N/A
10:51 am 10:51 Sunny 95 35 24 -4.4 8 8 WNW 12 19 29.83 1010 10 16 N/A
11:51 am 11:51 Sunny 94 34.4 25 -3.9 8 8 WNW 8 13 29.82 1010 10 16 N/A
12:51 pm 12:51 Sunny 95 35 26 -3.3 8 8 N N/A 29.80 1009 10 16 N/A
1:51 pm 13:51 Sunny 96 35.6 26 -3.3 8 8 N N/A 29.78 1008 10 16 N/A
2:51 pm 14:51 Mostly Sunny 99 37.2 26 -3.3 7 7 WSW 7 11 29.75 1007 10 16 N/A
3:51 pm 15:51 Mostly Cloudy 103 39.4 21 -6.1 5 5 NW 18 30 29.72 1006 10 16 N/A
4:51 pm 16:51 Mostly Cloudy 101 38.3 22 -5.6 6 6 WNW 15 24 29.71 1006 10 16 N/A
5:51 pm 17:51 Partly Cloudy 98 36.7 24 -4.4 7 7 NNW 18 30 29.70 1006 10 16 N/A
6:51 pm 18:51 Partly Cloudy 95 35 23 -5 7 7 NW 17 28 29.71 1006 10 16 N/A
7:51 pm 19:51 Mostly Clear 90 32.2 21 -6.1 8 8 NW 14 22 29.71 1006 10 16 N/A
8:51 pm 20:51 Clear 87 30.6 23 -5 9 9 NW 16 26 29.71 1006 10 16 N/A
9:51 pm 21:51 Clear 84 28.9 27 -2.8 12 12 NW 9 15 29.74 1007 10 16 N/A
10:51 pm 22:51 Clear 84 28.9 27 -2.8 12 12 NNW 13 20 29.73 1007 10 16 N/A
11:51 pm 23:51 Clear 77 25 27 -2.8 16 16 NNW 7 11 29.75 1008 10 16 N/A

Powered by AerisWeather